Jackson, TN

9:04 AM CDT on September 23, 2019 (GMT -0500)
McKellar-Sipes Regional

Weather History for KMKL - July, 2019

Change the Weather History Date:

Monday, July 15, 2019

  Actual Average Record
Temperature  
Mean Temperature 75 °F 80 °F  
Max Temperature 80 °F 91 °F 103 °F (1980)
Min Temperature 70 °F 69 °F 55 °F (1967)
Degree Days  
Heating Degree Days 0 0  
Month to date heating degree days 0 0  
Since 1 June heating degree days 1 2  
Since 1 July heating degree days 0 0  
Cooling Degree Days 10 15  
Month to date cooling degree days 241 218  
Year to date cooling degree days 822 772  
Since 1 June cooling degree days 562 557  
Growing Degree Days 24 (Base 50)    
Moisture  
Dew Point 72 °F    
Average Humidity 93    
Maximum Humidity 100    
Minimum Humidity 85    
Precipitation  
Precipitation 1.40 in 0.15 in 2.88 in (1955)
Month to date precipitation 4.85 2.21  
Year to date precipitation 37.67 30.59  
Sea Level Pressure  
Sea Level Pressure 30.02 in    
Wind  
Wind Speed 8 mph (SSE)    
Max Wind Speed 23 mph    
Max Gust Speed 34 mph    
Visibility 7 miles    
Events Rain    
T = Trace of Precipitation, MM = Missing Value Source: NWS Daily Summary

Daily Weather History Graph

Daily Weather History Graph

Search for Another Location

Airport or City:

Astronomy

Jul. 15, 2019 Rise Set
Actual Time 5:51 AM CDT 8:11 PM CDT
Civil Twilight 5:22 AM CDT 8:40 PM CDT
Nautical Twilight 4:46 AM CDT 9:16 PM CDT
Astronomical Twilight 4:06 AM CDT 9:55 PM CDT
Moon 7:28 PM CDT (7/15) 4:39 AM CDT (7/15)
Length of Visible Light 15h 18m
Length of Day
14h 20m
Waxing Gibbous, 99% of the Moon is Illuminated
Jul 15
Waxing Gibbous
Jul 16
Full
Jul 24
Last Quarter
Jul 31
New
Aug 7
First Quarter

Hourly Weather History & Observations

Time (CDT) Temp. Dew Point Humidity Pressure Visibility Wind Dir Wind Speed Gust Speed Precip Events Conditions
12:53 AM 71.1 °F 70.0 °F 96% 30.09 in 8.0 mi East 8.1 mph - 0.08 in Rain Rain
1:53 AM 71.1 °F 70.0 °F 96% 30.09 in 9.0 mi ESE 5.8 mph - 0.11 in Rain Light Rain
2:53 AM 70.0 °F 70.0 °F 100% 30.06 in 9.0 mi East 6.9 mph - 0.10 in Rain Light Rain
3:53 AM 70.0 °F 70.0 °F 100% 30.02 in 10.0 mi ESE 11.5 mph - 0.04 in   Overcast
4:53 AM 71.1 °F 70.0 °F 96% 30.03 in 10.0 mi Variable 3.5 mph - N/A   Overcast
5:14 AM 71.1 °F 70.0 °F 96% 30.05 in 10.0 mi South 3.5 mph - 0.00 in Rain Light Rain
5:53 AM 71.1 °F 70.0 °F 96% 30.03 in 9.0 mi Variable 6.9 mph - 0.06 in Rain Light Rain
6:53 AM 71.1 °F 70.0 °F 96% 30.02 in 2.0 mi East 9.2 mph - 0.11 in Rain Rain
7:04 AM 70.0 °F 70.0 °F 100% 30.03 in 10.0 mi East 9.2 mph - 0.00 in   Overcast
7:53 AM 71.1 °F 70.0 °F 96% 30.03 in 6.0 mi ESE 8.1 mph - 0.09 in Rain Light Rain
7:59 AM 71.1 °F 70.0 °F 96% 30.05 in 3.0 mi ESE 8.1 mph - 0.03 in Rain Heavy Rain
8:05 AM 71.1 °F 70.0 °F 96% 30.05 in 1.8 mi ESE 8.1 mph - 0.06 in Rain Rain
8:17 AM 71.1 °F 70.0 °F 96% 30.05 in 2.0 mi ESE 8.1 mph 16.1 mph 0.13 in Rain Rain
8:26 AM 71.1 °F 70.0 °F 96% 30.06 in 1.2 mi Variable 6.9 mph - 0.23 in Rain Heavy Rain
8:32 AM 71.1 °F 70.0 °F 96% 30.06 in 2.0 mi SSE 9.2 mph - 0.25 in Rain Rain
8:43 AM 71.1 °F 70.0 °F 96% 30.07 in 4.0 mi Variable 6.9 mph - 0.27 in Rain Light Rain
8:53 AM 72.0 °F 71.1 °F 97% 30.05 in 3.0 mi Variable 5.8 mph - 0.29 in Rain Rain
9:53 AM 73.0 °F 72.0 °F 96% 30.04 in 9.0 mi SSE 8.1 mph - 0.03 in Rain Light Rain
10:16 AM 73.0 °F 72.0 °F 96% 30.05 in 1.8 mi SE 8.1 mph 18.4 mph 0.04 in Rain Rain
10:26 AM 73.0 °F 72.0 °F 96% 30.04 in 3.0 mi SE 8.1 mph - 0.06 in Rain Light Rain
10:53 AM 73.0 °F 72.0 °F 96% 30.04 in 4.0 mi Variable 6.9 mph - 0.07 in Rain Light Rain
10:58 AM 73.0 °F 72.0 °F 96% 30.04 in 2.5 mi SE 8.1 mph - 0.03 in Rain Rain
11:10 AM 73.9 °F 73.0 °F 97% 30.04 in 7.0 mi Variable 5.8 mph - 0.04 in Rain Light Rain
11:21 AM 73.9 °F 73.0 °F 97% 30.04 in 10.0 mi SE 5.8 mph - 0.04 in   Overcast
11:36 AM 75.0 °F 73.0 °F 94% 30.04 in 10.0 mi SSE 6.9 mph 17.3 mph 0.04 in Rain Light Rain
11:53 AM 75.0 °F 73.0 °F 94% 30.03 in 10.0 mi SSE 9.2 mph - 0.04 in   Overcast
12:30 PM 75.9 °F 73.9 °F 94% 30.04 in 10.0 mi SSE 6.9 mph 18.4 mph 0.00 in Rain Light Rain
12:53 PM 78.1 °F 73.9 °F 87% 30.01 in 10.0 mi SE 8.1 mph 17.3 mph 0.01 in   Overcast
1:26 PM 77.0 °F 73.0 °F 88% 30.02 in 10.0 mi SSE 6.9 mph 17.3 mph N/A   Overcast
1:40 PM 78.1 °F 73.0 °F 84% 30.02 in 10.0 mi SSE 10.4 mph 18.4 mph N/A   Mostly Cloudy
1:53 PM 78.1 °F 73.0 °F 84% 30.01 in 10.0 mi SSE 8.1 mph 17.3 mph N/A   Scattered Clouds
2:39 PM 78.1 °F 72.0 °F 81% 30.01 in 10.0 mi South 8.1 mph - N/A   Overcast
2:53 PM 78.1 °F 73.0 °F 84% 30.00 in 10.0 mi SSE 8.1 mph - N/A   Overcast
3:18 PM 77.0 °F 73.9 °F 90% 30.01 in 10.0 mi SSE 9.2 mph - 0.02 in   Overcast
3:53 PM 79.0 °F 73.9 °F 84% 29.99 in 10.0 mi Variable 5.8 mph - 0.02 in   Mostly Cloudy
4:53 PM 79.0 °F 73.9 °F 84% 29.97 in 10.0 mi SSE 9.2 mph - 0.00 in   Overcast
5:36 PM 73.9 °F 71.1 °F 91% 29.99 in 1.8 mi SW 12.7 mph 34.5 mph 0.07 in Rain Heavy Rain
5:41 PM 73.0 °F 71.1 °F 93% 29.99 in 0.8 mi SSW 16.1 mph 34.5 mph 0.15 in Rain Heavy Rain
5:47 PM 73.4 °F 71.6 °F 94% 29.98 in 1.0 mi SSW 16.1 mph 25.3 mph 0.25 in Rain Rain
5:53 PM 73.0 °F 72.0 °F 96% 29.97 in 1.5 mi SSW 17.3 mph 26.5 mph 0.30 in Rain Heavy Rain
6:04 PM 73.0 °F 72.0 °F 96% 29.98 in 3.0 mi South 12.7 mph - 0.10 in Rain Rain
6:53 PM 73.9 °F 72.0 °F 93% 29.96 in 10.0 mi SSE 4.6 mph - 0.14 in   Partly Cloudy
7:53 PM 75.9 °F 73.9 °F 94% 29.96 in 10.0 mi Variable 4.6 mph - N/A   Scattered Clouds
8:53 PM 75.9 °F 73.9 °F 94% 29.95 in 10.0 mi Variable 5.8 mph - N/A   Clear
9:53 PM 75.9 °F 72.0 °F 87% 29.97 in 10.0 mi SSE 11.5 mph - N/A   Mostly Cloudy
10:53 PM 75.0 °F 72.0 °F 90% 29.99 in 10.0 mi SSE 10.4 mph 17.3 mph N/A   Mostly Cloudy
11:53 PM 75.0 °F 72.0 °F 90% 29.99 in 10.0 mi South 6.9 mph - N/A   Partly Cloudy